FW2418 Weather Reports


Display with metric or nautical units.
time (UTC)temp
F
wind
direction
speed
MPH
gust
MPH
rain 1hr
in
rain 24hr
in
rain mn
in
humidity
%
barometer
mb
20260510203920 83 17 3.0 9.0 0.00 0.22 0.01 76 1012.7
20260510202919 83 47 2.0 10.0 0.00 0.22 0.01 76 1013.0
20260510201918 83 34 3.0 11.0 0.00 0.22 0.01 75 1013.0
20260510200917 85 13 2.0 11.0 0.00 0.22 0.01 73 1013.0
20260510195916 85 339 2.0 7.0 0.00 0.22 0.01 71 1013.0
20260510194915 86 5 1.0 8.0 0.00 0.22 0.01 70 1012.7
20260510193915 88 340 3.0 6.0 0.00 0.22 0.01 67 1012.7
20260510192914 90 267 1.0 3.0 0.00 0.22 0.01 61 1012.3
20260510191913 90 296 1.0 3.0 0.00 0.22 0.01 60 1012.3
20260510190912 91 254 1.0 3.0 0.00 0.22 0.01 59 1012.3
20260510185911 91 218 1.0 6.0 0.00 0.22 0.01 59 1012.3
20260510184839 92 281 1.0 7.0 0.00 0.22 0.01 57 1012.3
20260510183838 93 162 2.0 7.0 0.00 0.22 0.01 53 1012.7
20260510182837 93 193 2.0 6.0 0.00 0.22 0.01 54 1012.7
20260510181836 93 146 2.0 5.0 0.00 0.22 0.01 56 1012.7
20260510180835 93 290 1.0 5.0 0.00 0.22 0.01 56 1012.7
20260510175834 92 321 2.0 5.0 0.00 0.22 0.01 56 1012.7
20260510174731 91 264 2.0 4.0 0.00 0.22 0.01 59 1013.0
20260510173556 91 301 1.0 4.0 0.00 0.22 0.01 59 1013.0
20260510172555 91 325 2.0 4.0 0.00 0.22 0.01 58 1013.3
20260510171554 91 271 1.0 5.0 0.00 0.22 0.01 61 1013.3
20260510170553 90 133 1.0 9.0 0.00 0.22 0.01 63 1013.3
20260510165553 91 161 1.0 9.0 0.00 0.22 0.01 59 1013.7
20260510164551 90 155 2.0 11.0 0.00 0.22 0.01 60 1013.7
20260510163550 90 201 2.0 11.0 0.00 0.22 0.01 62 1014.0
20260510162549 89 179 3.0 6.0 0.00 0.22 0.01 65 1014.0
20260510161548 90 160 2.0 6.0 0.00 0.22 0.01 65 1014.0
20260510160445 88 179 2.0 5.0 0.00 0.22 0.01 68 1014.0
20260510155444 88 172 2.0 6.0 0.00 0.22 0.01 66 1014.0
20260510154443 88 206 2.0 7.0 0.00 0.22 0.01 71 1014.0
20260510153442 87 163 3.0 7.0 0.00 0.22 0.01 70 1014.4
20260510152441 86 231 1.0 5.0 0.00 0.22 0.01 70 1014.4
20260510151440 86 275 1.0 3.0 0.00 0.22 0.01 71 1014.0
20260510150439 86 275 1.0 4.0 0.00 0.22 0.01 73 1014.0
20260510145407 85 227 2.0 5.0 0.00 0.22 0.01 73 1014.0
20260510144335 85 242 0.0 6.0 0.00 0.22 0.01 77 1014.0
20260510143334 84 193 1.0 6.0 0.00 0.22 0.01 77 1014.0
20260510142333 83 201 2.0 4.0 0.00 0.22 0.01 81 1014.0
20260510141332 81 161 2.0 3.0 0.00 0.22 0.01 85 1014.0
20260510140331 81 149 0.0 3.0 0.00 0.22 0.01 87 1014.0
20260510135330 81 163 2.0 3.0 0.00 0.22 0.01 87 1014.0
20260510134329 80 153 2.0 3.0 0.00 0.22 0.01 90 1013.7
20260510133328 78 164 1.0 2.0 0.00 0.22 0.01 93 1013.7
20260510132256 77 147 0.0 1.0 0.00 0.22 0.01 95 1013.7
20260510131255 76 191 1.0 1.0 0.00 0.22 0.01 96 1013.7
20260510130254 76 150 1.0 1.0 0.00 0.22 0.01 99 1013.7
20260510125254 76 124 0.0 0.0 0.00 0.22 0.01 100 1013.3
20260510124221 75 124 0.0 0.0 0.00 0.22 0.01 100 1013.3
20260510123149 75 124 0.0 0.0 0.00 0.22 0.01 100 1013.3
20260510122149 75 124 0.0 0.0 0.00 0.22 0.01 100 1013.3
20260510121148 74 124 0.0 0.0 0.00 0.22 0.01 100 1012.9
20260510120045 74 124 0.0 0.0 0.00 0.22 0.01 100 1012.9
20260510115044 73 124 0.0 0.0 0.00 0.22 0.01 100 1012.9
20260510114011 73 124 0.0 0.0 0.01 0.22 0.01 100 1012.6
20260510113011 72 124 0.0 0.0 0.01 0.22 0.01 100 1012.3
20260510112010 72 124 0.0 0.0 0.01 0.22 0.01 99 1012.3
20260510111009 72 124 0.0 0.0 0.01 0.22 0.01 99 1012.3
20260510110008 72 124 0.0 0.0 0.01 0.22 0.01 99 1012.3
20260510104936 72 124 0.0 0.0 0.01 0.22 0.01 99 1012.0
20260510103935 72 124 0.0 0.0 0.00 0.21 0.00 99 1011.6
20260510102934 72 124 0.0 0.0 0.00 0.21 0.00 99 1011.6
20260510101933 72 124 0.0 0.0 0.00 0.21 0.00 99 1011.6
20260510100932 72 124 0.0 0.0 0.00 0.21 0.00 99 1011.3
20260510095931 72 124 0.0 0.0 0.00 0.21 0.00 99 1011.3
20260510094931 72 124 0.0 0.0 0.00 0.21 0.00 99 1011.3
20260510093930 72 124 0.0 0.0 0.00 0.21 0.00 100 1010.9
20260510092929 72 124 0.0 0.0 0.00 0.21 0.00 100 1010.9
20260510091928 72 124 0.0 0.0 0.00 0.21 0.00 100 1010.9
20260510090927 72 124 0.0 0.0 0.00 0.21 0.00 99 1010.9
20260510085926 72 124 0.0 1.0 0.00 0.21 0.00 99 1010.6
20260510084925 71 99 0.0 1.0 0.00 0.21 0.00 99 1010.6
20260510083924 71 99 0.0 0.0 0.00 0.21 0.00 99 1011.0
20260510082923 71 99 0.0 0.0 0.00 0.21 0.00 99 1011.0
20260510081851 71 99 0.0 0.0 0.00 0.21 0.00 99 1011.0
20260510080850 71 98 0.0 0.0 0.00 0.21 0.00 99 1011.0
20260510075849 71 99 0.0 0.0 0.00 0.21 0.00 99 1011.0
20260510074848 70 99 0.0 0.0 0.00 0.21 0.00 99 1011.0
20260510073847 70 98 0.0 0.0 0.00 0.21 0.00 99 1011.0
20260510072846 70 99 0.0 0.0 0.00 0.21 0.00 99 1011.3
20260510071845 70 98 0.0 0.0 0.00 0.21 0.00 99 1011.3
20260510070844 70 98 0.0 0.0 0.00 0.21 0.00 99 1011.3
20260510065843 71 99 0.0 0.0 0.00 0.21 0.00 99 1011.3
20260510064842 71 98 0.0 0.0 0.00 0.21 0.00 99 1011.3
20260510063841 71 98 0.0 0.0 0.00 0.21 0.00 99 1011.3
20260510062840 71 98 0.0 0.0 0.00 0.21 0.00 99 1011.7
20260510061839 71 98 0.0 0.0 0.00 0.21 0.00 99 1011.7
20260510060838 71 98 0.0 0.0 0.00 0.21 0.00 99 1011.7
20260510055836 71 98 0.0 0.0 0.00 0.21 0.00 99 1011.7
20260510054836 71 98 0.0 0.0 0.00 0.21 0.00 99 1012.0
20260510053835 71 99 0.0 0.0 0.00 0.21 0.00 99 1012.0
20260510052833 71 98 0.0 0.0 0.00 0.21 0.00 99 1012.3
20260510051832 71 99 0.0 1.0 0.00 0.21 0.00 99 1012.3
20260510050832 71 99 0.0 1.0 0.00 0.21 0.00 99 1012.3
20260510045831 71 99 0.0 0.0 0.00 0.21 0.00 98 1012.7
20260510044830 71 99 0.0 0.0 0.00 0.21 0.00 98 1012.7
20260510043829 71 99 0.0 0.0 0.00 0.21 0.00 98 1012.7
20260510042829 72 99 0.0 0.0 0.00 0.21 0.00 98 1012.7
20260510041828 72 99 0.0 0.0 0.00 0.21 0.00 98 1012.7
20260510040827 72 99 0.0 0.0 0.00 0.21 0.00 98 1012.7
20260510035826 72 99 0.0 0.0 0.00 0.21 0.21 98 1012.7
20260510034825 72 98 0.0 0.0 0.00 0.21 0.21 98 1012.7
20260510033824 72 98 0.0 0.0 0.00 0.21 0.21 98 1012.3
20260510032823 72 98 0.0 0.0 0.00 0.21 0.21 98 1012.3
20260510031822 72 98 0.0 0.0 0.00 0.21 0.21 98 1012.3
20260510030750 73 98 0.0 0.0 0.00 0.21 0.21 99 1012.3
20260510025717 73 98 0.0 0.0 0.00 0.21 0.21 99 1012.3
20260510024716 73 77 0.0 0.0 0.00 0.21 0.21 99 1012.3
20260510023715 73 77 0.0 0.0 0.00 0.21 0.21 99 1012.3
20260510022643 73 77 0.0 0.0 0.00 0.21 0.21 99 1012.3
20260510021642 73 78 0.0 0.0 0.00 0.21 0.21 99 1012.3
20260510020641 73 77 0.0 1.0 0.00 0.21 0.21 99 1012.3
20260510015641 73 58 0.0 0.0 0.00 0.21 0.21 99 1012.3
20260510014609 73 336 0.0 0.0 0.00 0.21 0.21 99 1012.3
20260510013537 73 336 0.0 0.0 0.00 0.21 0.21 99 1012.0
20260510012536 73 336 0.0 0.0 0.00 0.22 0.21 99 1012.0
20260510011504 73 336 0.0 0.0 0.00 0.30 0.21 99 1012.0
20260510010506 73 335 0.0 1.0 0.00 0.42 0.21 98 1011.6
20260510004717 73 336 1.0 1.0 0.00 0.45 0.21 98 1011.6
20260510003716 74 333 1.0 1.0 0.00 0.45 0.21 98 1011.3
20260510002644 74 285 1.0 1.0 0.00 0.58 0.21 98 1010.9
20260510001644 74 283 1.0 1.0 0.00 1.01 0.21 98 1011.3
20260510000643 74 284 0.0 1.0 0.00 1.01 0.21 98 1010.9
20260509235642 74 29 1.0 1.0 0.00 1.01 0.21 97 1010.6
20260509234641 74 32 1.0 1.0 0.00 1.01 0.21 97 1010.9
20260509233640 74 354 1.0 3.0 0.00 1.01 0.21 97 1010.6
20260509232639 75 70 2.0 3.0 0.00 1.01 0.21 97 1010.6
20260509231639 75 46 1.0 3.0 0.00 1.01 0.21 97 1010.3
20260509230638 75 22 1.0 5.0 0.00 1.01 0.21 97 1010.3
20260509225637 75 29 1.0 6.0 0.00 1.01 0.21 97 1010.3
20260509224636 75 26 2.0 7.0 0.00 1.01 0.21 97 1009.9
20260509223635 76 31 2.0 6.0 0.00 1.01 0.21 97 1009.9
20260509222634 76 32 2.0 7.0 0.00 1.01 0.21 96 1009.9
20260509221531 76 27 2.0 8.0 0.00 1.01 0.21 97 1009.9
20260509220459 76 18 2.0 8.0 0.04 1.01 0.21 97 1009.9
20260509215427 76 53 1.0 5.0 0.12 1.01 0.21 97 1009.6
20260509214426 75 66 1.0 5.0 0.21 1.01 0.21 97 1009.6
20260509213354 76 25 2.0 6.0 0.21 1.01 0.21 96 1009.6
20260509212321 76 17 1.0 4.0 0.21 1.01 0.21 96 1009.6
20260509211321 76 25 2.0 3.0 0.21 1.01 0.21 95 1009.6
20260509210320 77 338 0.0 7.0 0.17 0.97 0.17 92 1010.3
20260509205248 81 310 2.0 8.0 0.05 0.85 0.05 86 1009.9